Temperature
20 21 21 20 19 19 19 19 18 19 18 18 18 18 17 17 16 15 15 14 14 14 14 13 13 13 13 13 12 12 12 12 12 12 11 11 11 11 11 11 10 10 10 10
20 21 20 19 19 19 19 19 19 18 18 19 18 18 17 16 16 15 14 14 14 13 13 13 13 13 13 12 12 12 12 12 12 11 11 11 11 11 10 10 10 10 10 10
19 20 20 18 19 19 18 18 18 17 17 18 18 17 17 16 15 15 14 14 13 13 13 12 12 12 12 12 12 12 11 11 11 11 11 10 10 10 10 10 10 10 9 9
18 19 17 18 20 19 18 18 18 18 18 17 17 17 16 15 14 14 14 13 13 12 12 12 12 12 12 12 12 11 11 11 10 10 10 10 10 10 9 9 9 9 9 9
18 17 18 18 19 18 18 17 18 17 17 16 16 16 15 14 14 13 13 13 12 12 12 12 12 11 11 11 11 11 11 10 10 10 10 10 9 9 9 9 9 9 8 8
17 17 17 17 18 18 18 16 17 17 16 15 15 14 14 14 13 13 12 12 12 12 11 11 11 11 11 11 11 10 10 10 10 9 9 9 9 9 9 9 8 8 8 8
16 17 17 18 17 17 16 16 16 16 15 15 14 14 13 13 12 12 12 12 11 11 11 10 10 10 10 10 10 10 10 9 9 9 9 9 9 8 8 8 8 8 8 8
16 16 16 17 17 16 16 16 16 15 15 14 13 13 13 12 12 11 11 11 11 10 10 10 10 10 10 10 10 9 9 9 9 9 8 8 8 8 8 8 7 7 7 7
16 16 16 16 16 16 16 15 15 14 14 13 13 12 12 11 11 11 10 10 10 10 10 9 9 10 10 9 9 9 9 9 8 8 8 8 8 7 7 7 7 7 7 7
16 16 16 16 15 15 15 14 14 14 13 13 12 12 11 11 10 10 10 9 9 9 9 9 9 9 9 9 9 9 8 8 8 8 7 7 7 7 7 7 6 6 6 6
16 16 16 15 15 14 14 14 13 13 12 12 12 11 11 10 10 9 9 9 9 9 9 8 9 9 9 9 8 8 8 8 7 7 7 7 7 7 6 6 6 6 6 6
15 16 15 15 14 14 13 13 13 12 12 11 11 11 10 10 9 9 9 9 8 8 8 8 8 8 8 8 8 8 8 7 7 7 6 6 6 6 6 6 6 6 6 6
15 15 15 14 14 13 13 13 12 12 11 11 10 10 10 9 9 8 8 8 8 8 7 8 8 8 8 8 7 7 7 7 7 6 6 6 6 6 6 6 6 6 5 5
14 14 13 13 13 13 12 12 12 11 11 10 10 9 9 9 8 8 8 8 7 7 7 7 7 7 7 7 7 7 7 7 6 6 6 6 6 5 5 5 5 5 5 5
13 13 13 13 12 12 12 11 11 11 10 10 9 9 8 8 8 8 7 7 7 7 7 7 7 7 7 7 7 7 6 6 6 6 6 5 5 5 5 5 5 5 5 4
13 13 12 12 12 11 11 11 10 10 10 9 9 8 8 8 7 7 7 7 7 7 6 6 6 6 6 6 6 6 6 6 6 6 5 5 5 5 5 4 4 4 4 4
12 12 12 11 11 11 11 10 10 10 9 9 8 8 7 7 7 7 7 6 6 6 6 6 6 6 6 6 6 6 6 6 6 5 5 5 5 5 5 4 4 4 4 4
12 12 12 11 11 10 10 10 9 9 9 8 8 7 7 7 7 6 6 6 6 6 6 6 6 6 6 5 5 5 5 5 5 5 5 5 4 4 4 4 4 4 3 3
11 11 11 11 10 10 10 9 9 8 8 8 7 7 7 7 6 6 6 6 6 6 5 5 5 5 5 5 5 5 5 5 5 5 4 4 4 4 4 4 4 3 3 3
11 10 10 10 10 9 9 9 8 8 8 7 7 6 6 6 6 5 5 5 5 5 5 5 5 5 5 5 4 4 4 4 4 4 4 4 4 4 3 3 3 3 3 2
10 9 9 9 9 9 8 8 8 7 7 7 6 6 6 6 5 5 5 5 5 5 5 5 4 4 4 4 4 4 4 3 3 3 3 3 3 3 3 3 3 3 2 2
9 9 8 8 8 8 8 7 7 7 7 6 6 6 5 5 5 5 5 5 4 4 4 4 4 4 4 4 4 3 3 3 3 3 3 2 2 2 2 2 2 2 2 2
8 8 8 8 7 7 7 7 7 6 6 6 6 5 5 5 5 4 4 4 4 4 4 4 4 4 3 3 3 3 3 3 2 2 2 2 2 2 2 2 1 1 1 1
8 8 7 7 7 6 6 6 6 6 6 5 5 5 5 4 4 4 4 4 4 4 3 3 3 3 3 3 3 2 2 2 2 2 2 1 1 1 1 1 1 1 1 1
7 7 7 7 6 6 6 6 5 5 5 5 5 5 4 4 4 4 4 3 3 3 3 3 3 3 2 2 2 2 2 2 2 1 1 1 1 1 1 1 1 0 0 0
7 7 7 6 6 6 6 5 5 5 5 4 4 4 4 4 3 3 3 3 3 3 3 2 2 2 2 2 2 2 2 1 1 1 1 1 1 1 0 0 0 0 0 0
6 6 6 6 6 6 5 5 5 5 4 4 4 4 4 3 3 3 3 3 2 2 2 2 2 2 2 2 1 1 1 1 1 1 1 1 0 0 0 0 0 -0 -0 -0
Wind_Speed
9 7 5 4 5 6 7 8 8 5 4 3 1 3 3 3 4 4 3 3 3 3 3 3 2 3 4 4 4 4 3 2 2 2 2 2 2 2 2 1 1 1 1 1
10 8 6 7 7 7 7 7 8 7 6 3 1 3 4 4 3 3 3 2 2 2 2 2 2 2 3 4 4 4 4 3 2 2 2 2 2 2 1 1 1 1 1 2
9 7 6 8 7 7 6 4 4 5 4 1 2 2 3 3 2 2 2 2 1 2 2 2 2 3 3 3 4 3 3 3 3 2 2 2 1 2 1 1 1 1 1 2
8 8 8 2 2 2 4 3 2 2 2 2 2 2 3 4 3 2 2 2 1 1 2 2 2 2 3 4 4 3 3 3 2 2 2 2 2 2 1 1 1 1 1 1
6 7 7 4 1 1 2 2 0 0 1 2 4 3 4 4 3 2 2 1 1 1 2 2 2 2 2 3 3 3 3 3 2 2 2 2 1 1 1 1 1 1 0 1
6 7 6 1 2 1 1 2 1 1 1 2 2 0 1 3 4 3 3 2 2 2 2 3 2 2 2 2 3 3 3 2 2 1 2 2 1 1 0 1 0 0 1 1
8 8 4 1 2 1 2 0 3 3 3 2 0 2 2 3 4 4 3 3 3 2 2 2 2 1 2 2 2 2 2 2 2 2 1 1 1 1 0 0 1 0 1 1
5 7 4 2 2 1 2 4 4 4 3 3 4 5 4 4 4 4 4 3 3 2 2 2 2 1 2 2 2 2 2 2 2 2 1 1 1 1 0 0 0 1 1 1
3 2 1 3 3 3 4 3 3 3 3 3 3 4 3 3 3 3 3 3 2 2 2 1 1 1 1 1 2 3 2 1 2 2 1 1 1 1 1 0 0 1 1 1
4 2 2 2 3 3 3 3 3 3 3 3 3 3 2 2 2 2 2 2 2 2 1 1 1 0 0 1 1 2 2 2 2 2 2 1 1 1 1 0 0 1 1 2
6 4 1 2 3 3 3 2 2 3 2 2 2 2 2 1 2 2 1 2 2 1 1 0 0 0 0 0 1 1 2 2 1 1 2 1 1 0 1 1 2 2 2 2
5 3 2 2 2 3 3 2 2 2 2 2 2 2 1 1 1 2 2 1 1 1 2 2 1 1 1 0 0 1 1 2 2 1 1 1 1 0 1 1 2 3 3 3
5 2 1 0 1 2 3 3 2 2 2 1 1 1 1 1 1 2 2 2 1 1 1 2 2 2 1 1 0 1 1 1 2 2 2 2 2 2 1 2 2 2 3 2
2 2 2 2 2 2 3 3 2 2 2 2 1 1 1 1 1 1 0 1 1 1 1 1 1 1 2 1 1 1 1 1 1 2 2 2 2 2 2 2 1 2 3 4
4 3 3 2 2 3 2 3 2 2 2 2 2 1 1 1 1 1 0 0 0 1 1 0 1 1 1 1 1 1 1 1 1 1 1 1 1 1 1 1 1 1 1 2
5 4 4 4 4 4 3 3 3 3 2 2 2 1 1 1 1 1 0 1 1 1 1 1 1 1 1 1 1 1 1 2 1 1 2 1 1 1 1 2 2 2 1 1
7 7 7 6 6 5 5 4 3 2 2 2 2 1 1 1 1 1 0 0 0 0 0 1 1 1 1 1 1 1 1 1 2 2 2 2 2 2 2 2 2 2 2 2
7 6 6 5 5 5 5 4 3 3 2 2 2 1 1 2 2 1 0 0 0 0 0 1 2 2 1 1 0 1 1 1 1 2 2 2 2 2 2 2 2 2 2 2
6 5 5 4 4 4 4 4 3 3 2 3 2 2 2 2 1 1 1 1 1 1 0 1 2 1 1 1 1 1 1 1 2 2 2 2 2 2 2 3 2 2 2 2
5 4 4 4 3 3 3 3 3 3 3 3 2 2 1 1 1 1 1 1 1 0 0 0 0 1 1 1 1 1 1 2 2 2 2 2 2 2 2 2 2 2 2 2
5 5 4 4 3 3 3 3 3 3 3 3 3 3 2 2 2 1 1 2 1 1 0 0 1 1 1 1 1 1 2 2 2 2 2 2 2 2 2 2 2 2 2 2
5 5 5 4 4 3 3 3 3 3 3 3 3 2 2 2 2 2 2 2 1 1 1 1 1 2 2 2 1 2 2 2 2 2 2 2 2 2 2 2 2 2 2 2
4 4 5 4 4 3 3 3 3 3 3 3 3 3 3 2 2 2 2 1 1 1 1 1 2 2 3 2 2 2 2 2 2 2 2 2 2 2 2 3 3 2 2 3
4 4 4 4 4 4 4 3 3 3 3 3 3 3 3 2 2 2 1 2 1 1 1 2 2 2 3 2 2 2 2 2 2 2 2 2 2 2 2 2 2 3 3 3
3 3 3 4 4 3 3 3 3 3 3 2 2 2 2 2 2 2 1 2 2 2 2 3 3 3 2 2 2 2 2 2 2 2 2 2 2 2 2 2 2 3 3 3
3 3 3 3 3 3 3 3 3 3 3 2 2 2 2 1 1 1 1 2 3 2 2 2 2 2 2 2 2 2 2 2 2 2 2 2 2 3 3 3 4 3 3 3
3 2 2 2 2 2 3 3 3 3 3 3 2 2 2 2 2 2 2 2 2 2 2 2 2 2 2 2 2 2 2 2 2 2 2 2 2 3 3 3 3 3 3 3
Wind_Direction
280 288 285 278 269 260 252 262 269 279 266 262 219 159 149 132 119 116 115 103 116 116 109 112 116 120 132 134 131 129 130 125 111 101 85 75 76 69 50 48 35 12 39 65
276 270 271 271 272 262 254 256 258 269 281 305 40 106 121 121 128 140 133 122 123 128 120 123 125 130 129 132 131 130 130 122 110 110 98 87 81 75 53 36 27 24 42 50
278 276 266 263 259 247 246 249 254 269 273 359 24 97 125 130 147 156 146 138 135 146 138 125 127 129 125 120 121 122 124 125 120 113 101 90 72 68 47 22 32 16 31 64
275 277 259 251 358 239 233 251 245 256 334 41 36 72 86 89 108 122 113 127 136 124 119 122 111 112 111 119 127 132 132 125 105 104 107 91 71 61 22 19 59 24 20 47
265 269 265 253 242 264 245 264 331 261 356 29 41 69 68 56 69 78 90 97 108 110 115 114 107 113 118 128 137 137 132 129 126 124 121 111 88 77 19 28 28 341 29 37
260 265 265 291 39 355 239 237 106 118 70 66 72 35 340 53 59 61 71 82 74 90 112 113 100 104 145 142 136 139 135 133 130 132 143 150 138 111 16 355 299 299 50 68
254 261 261 44 88 140 208 102 78 78 81 85 57 26 70 68 62 60 66 75 80 89 104 112 114 121 156 149 150 139 125 139 155 163 162 156 150 145 141 322 313 345 57 59
241 251 248 93 135 146 80 85 80 75 82 82 78 72 72 68 64 62 63 65 73 85 92 107 123 121 125 142 131 121 127 143 158 161 172 150 148 163 161 182 340 4 20 358
242 237 82 118 91 70 64 70 73 76 83 98 97 92 80 71 65 64 66 57 47 82 93 96 116 116 127 123 120 132 143 157 168 165 161 166 168 175 168 118 75 335 325 312
258 224 176 150 112 92 75 66 65 82 91 102 106 102 87 84 70 66 71 58 37 77 115 105 90 94 93 91 114 154 166 177 179 176 169 163 166 151 140 143 302 284 291 294
263 260 224 180 153 130 108 100 93 93 96 101 110 105 85 68 67 52 56 64 43 31 37 282 196 141 121 101 158 187 184 177 170 153 161 164 147 171 193 184 212 246 254 259
262 274 252 216 173 159 149 150 135 123 118 112 110 114 91 73 58 45 34 50 41 17 17 359 10 12 17 133 200 208 196 175 166 152 156 164 171 329 352 256 249 255 258 260
253 295 335 54 170 160 148 149 137 133 139 128 105 109 106 84 61 55 38 22 357 350 352 345 357 354 345 356 277 243 230 198 175 173 182 192 196 197 246 319 307 289 277 278
207 186 216 200 186 161 155 153 145 146 138 128 121 121 120 114 98 91 354 332 340 336 300 300 327 340 343 336 291 247 204 238 203 182 189 202 208 218 218 229 272 294 298 292
220 219 215 193 181 161 150 158 164 163 144 138 136 134 134 170 218 233 217 116 12 339 301 309 342 343 2 345 311 261 203 216 202 188 194 204 219 236 240 249 262 279 307 309
213 214 206 200 199 186 185 193 191 182 168 161 163 166 181 207 233 241 198 176 190 263 310 337 326 337 44 15 311 292 238 230 223 207 207 209 210 223 243 245 251 254 261 280
209 211 215 213 208 205 201 202 200 190 174 170 179 180 187 204 231 236 205 133 165 317 349 339 2 15 18 335 307 281 269 255 253 240 218 214 219 221 233 241 242 249 256 262
217 217 217 213 208 207 205 200 192 188 179 172 163 171 199 218 239 245 184 166 249 214 48 39 38 21 17 25 341 312 278 257 244 238 244 230 232 230 230 233 247 261 275 280
212 216 217 212 202 196 200 193 180 170 162 158 163 191 219 227 231 240 248 248 239 241 292 37 9 7 0 8 345 304 284 270 262 254 244 256 250 235 235 234 239 247 259 273
203 203 197 192 185 187 185 171 162 158 157 157 167 187 209 218 210 232 248 258 226 221 317 353 264 286 309 303 310 279 269 270 268 264 258 245 239 243 248 245 239 241 245 253
188 185 187 181 174 172 172 170 168 169 166 172 186 199 210 218 210 213 240 257 256 49 334 286 260 272 282 304 290 274 272 274 274 271 266 267 271 262 256 254 254 255 255 259
180 179 177 173 171 174 175 175 174 173 175 186 196 202 210 220 219 226 242 234 233 253 273 231 232 283 305 298 248 253 255 263 271 278 279 276 279 274 271 272 268 264 260 261
178 174 174 178 182 185 180 177 177 182 188 191 198 208 214 221 217 219 242 231 190 225 240 236 268 282 299 267 245 244 243 245 255 264 271 272 270 271 270 270 272 277 274 272
173 176 178 177 178 183 189 187 177 182 190 198 209 214 214 214 226 227 218 210 209 223 234 251 255 260 273 261 251 249 246 242 247 254 264 272 269 266 268 271 273 274 273 277
174 174 175 182 190 190 188 178 177 188 192 198 204 208 213 213 219 220 200 193 205 216 235 241 244 253 250 257 261 261 253 245 252 255 252 270 277 278 274 272 272 272 272 272
186 187 192 200 193 177 181 184 192 194 192 200 201 200 205 198 193 193 189 199 208 224 225 221 223 235 245 258 262 267 269 264 254 246 245 254 267 273 274 273 277 276 274 272
197 196 189 191 181 177 183 186 191 199 199 200 205 203 196 195 200 206 204 207 215 214 212 215 224 227 237 245 254 258 264 269 258 245 237 245 256 264 270 275 279 283 285 280
Height
1485 1482 1482 1485 1487 1488 1490 1491 1495 1493 1491 1490 1491 1492 1494 1495 1497 1499 1500 1501 1503 1504 1506 1507 1508 1510 1511 1512 1513 1514 1515 1516 1517 1518 1519 1519 1520 1521 1521 1521 1522 1522 1522 1522
1485 1480 1480 1484 1485 1486 1487 1488 1489 1489 1491 1488 1489 1490 1492 1495 1496 1498 1499 1501 1502 1503 1504 1505 1506 1508 1509 1510 1511 1512 1513 1514 1515 1516 1517 1518 1518 1518 1519 1519 1519 1520 1520 1520
1488 1480 1481 1487 1483 1483 1485 1484 1486 1490 1490 1487 1488 1489 1491 1493 1495 1497 1498 1500 1501 1502 1502 1503 1505 1506 1507 1508 1509 1510 1511 1512 1513 1514 1515 1516 1516 1517 1517 1517 1517 1518 1518 1518
1488 1486 1495 1486 1477 1478 1481 1482 1483 1485 1486 1487 1488 1489 1491 1492 1494 1496 1497 1498 1499 1500 1501 1502 1503 1504 1505 1506 1507 1508 1509 1511 1511 1512 1513 1514 1514 1514 1515 1515 1515 1515 1515 1516
1489 1491 1487 1481 1478 1478 1481 1483 1482 1484 1486 1487 1488 1488 1490 1492 1493 1495 1496 1497 1498 1499 1499 1500 1501 1502 1503 1504 1505 1506 1507 1508 1509 1510 1511 1511 1512 1512 1513 1513 1513 1513 1513 1514
1488 1492 1492 1484 1478 1477 1480 1486 1483 1484 1486 1488 1489 1491 1493 1492 1493 1493 1494 1495 1496 1496 1497 1498 1499 1500 1501 1502 1503 1504 1505 1506 1507 1508 1508 1509 1510 1510 1511 1511 1511 1511 1511 1511
1489 1489 1484 1480 1479 1479 1489 1489 1484 1484 1486 1488 1490 1491 1492 1492 1492 1493 1493 1493 1494 1495 1495 1496 1497 1498 1499 1500 1501 1502 1503 1504 1505 1506 1506 1507 1508 1508 1509 1509 1509 1509 1509 1509
1485 1489 1489 1480 1479 1482 1485 1483 1484 1485 1487 1488 1490 1491 1491 1491 1491 1492 1491 1492 1492 1493 1494 1495 1496 1496 1497 1498 1499 1500 1501 1502 1503 1503 1504 1505 1506 1506 1506 1507 1507 1507 1506 1506
1481 1484 1479 1479 1480 1481 1482 1483 1485 1486 1487 1488 1489 1490 1491 1491 1491 1491 1491 1491 1492 1492 1492 1493 1494 1495 1496 1496 1497 1498 1499 1500 1500 1501 1502 1503 1503 1504 1504 1504 1504 1504 1504 1503
1477 1476 1477 1478 1480 1481 1482 1484 1485 1486 1487 1488 1489 1490 1490 1491 1491 1491 1491 1491 1491 1491 1491 1492 1493 1493 1494 1495 1495 1496 1497 1497 1498 1499 1499 1500 1501 1501 1501 1501 1501 1501 1501 1500
1476 1476 1477 1478 1479 1480 1482 1483 1484 1485 1486 1487 1488 1489 1489 1489 1490 1490 1490 1490 1490 1490 1491 1491 1492 1492 1492 1493 1493 1494 1495 1495 1496 1496 1497 1497 1498 1498 1498 1498 1499 1498 1498 1498
1476 1475 1476 1477 1478 1479 1480 1482 1483 1484 1485 1486 1487 1488 1488 1488 1489 1489 1489 1489 1489 1489 1490 1490 1490 1490 1491 1491 1491 1492 1492 1492 1493 1493 1494 1494 1495 1495 1495 1496 1496 1496 1496 1496
1472 1473 1474 1475 1476 1477 1479 1480 1481 1482 1484 1485 1485 1486 1487 1487 1487 1487 1487 1487 1488 1488 1488 1488 1488 1488 1489 1489 1489 1489 1489 1490 1490 1490 1491 1491 1492 1492 1491 1492 1493 1493 1493 1492
1470 1471 1473 1474 1475 1476 1477 1478 1480 1481 1482 1483 1484 1485 1485 1485 1485 1486 1486 1486 1486 1486 1486 1486 1486 1486 1487 1487 1487 1487 1487 1488 1488 1488 1488 1489 1489 1489 1489 1488 1488 1488 1489 1489
1467 1469 1470 1472 1473 1474 1475 1477 1478 1479 1480 1481 1482 1482 1483 1483 1484 1484 1484 1484 1484 1484 1484 1484 1484 1484 1484 1484 1484 1484 1484 1485 1485 1486 1486 1486 1486 1486 1486 1486 1486 1485 1485 1484
1465 1466 1468 1469 1471 1472 1473 1475 1475 1477 1478 1479 1479 1480 1481 1481 1482 1482 1482 1482 1482 1482 1482 1482 1482 1482 1482 1481 1481 1482 1482 1482 1483 1483 1483 1483 1483 1483 1483 1483 1483 1482 1481 1481
1461 1463 1465 1466 1468 1469 1470 1472 1473 1474 1475 1476 1477 1478 1478 1479 1479 1479 1480 1480 1480 1480 1480 1479 1479 1479 1479 1479 1479 1479 1479 1479 1480 1480 1480 1480 1480 1480 1480 1480 1479 1479 1478 1477
1457 1459 1461 1462 1464 1466 1467 1469 1470 1471 1472 1473 1474 1475 1475 1476 1476 1476 1477 1477 1477 1477 1477 1477 1477 1476 1476 1476 1476 1476 1476 1476 1476 1477 1477 1477 1477 1477 1477 1476 1476 1475 1474 1474
1453 1455 1457 1459 1460 1462 1464 1465 1467 1468 1469 1470 1471 1472 1472 1473 1473 1473 1474 1474 1474 1474 1474 1474 1474 1474 1473 1473 1473 1474 1473 1473 1473 1473 1474 1474 1473 1473 1473 1472 1472 1471 1470 1469
1449 1451 1453 1455 1457 1459 1461 1462 1464 1465 1466 1467 1468 1469 1470 1470 1470 1471 1471 1471 1471 1471 1471 1471 1471 1471 1471 1471 1471 1471 1471 1470 1470 1470 1470 1470 1469 1469 1469 1468 1468 1467 1466 1465
1446 1448 1450 1452 1454 1456 1458 1459 1461 1462 1463 1464 1465 1465 1466 1467 1467 1468 1468 1468 1468 1468 1468 1468 1467 1467 1467 1467 1467 1467 1467 1467 1467 1467 1466 1466 1466 1465 1465 1464 1463 1463 1462 1461
1443 1445 1447 1449 1451 1453 1455 1456 1458 1459 1460 1461 1462 1462 1463 1464 1464 1464 1464 1465 1465 1465 1465 1464 1464 1464 1464 1464 1463 1463 1463 1463 1463 1463 1463 1462 1462 1461 1461 1460 1459 1459 1458 1457
1441 1443 1445 1447 1448 1450 1452 1453 1454 1455 1456 1457 1458 1459 1459 1460 1460 1460 1460 1461 1461 1461 1461 1461 1460 1460 1460 1460 1459 1459 1459 1459 1459 1459 1459 1458 1458 1457 1457 1456 1455 1455 1454 1453
1439 1441 1442 1444 1446 1447 1449 1450 1451 1452 1453 1454 1454 1455 1456 1456 1456 1457 1457 1457 1457 1457 1457 1457 1457 1457 1456 1456 1455 1455 1455 1455 1455 1455 1455 1454 1454 1453 1452 1452 1451 1450 1449 1448
1438 1439 1440 1441 1443 1444 1445 1446 1447 1448 1449 1450 1451 1452 1452 1452 1453 1453 1453 1453 1453 1453 1453 1453 1453 1453 1452 1452 1452 1451 1451 1451 1451 1450 1450 1450 1449 1449 1448 1447 1447 1446 1445 1444
1435 1436 1437 1438 1439 1440 1441 1443 1443 1444 1445 1446 1447 1447 1448 1449 1449 1449 1449 1449 1449 1449 1449 1449 1449 1449 1448 1448 1448 1447 1447 1447 1446 1446 1446 1446 1445 1444 1444 1443 1442 1442 1441 1440
1433 1434 1434 1435 1436 1437 1438 1439 1440 1441 1441 1442 1442 1443 1444 1444 1445 1445 1445 1445 1445 1445 1445 1445 1445 1445 1444 1444 1444 1443 1443 1443 1443 1442 1442 1441 1440 1440 1439 1438 1438 1437 1436 1435